GW6966 Weather Reports


time (UTC)temp
C
wind
direction
speed
KPH
gust
KPH
rain 1hr
cm
rain 24hr
cm
rain mn
cm
humidity
%
barometer
mb
20260506014130 22 121 0.0 0.0 0.00 0.00 0.00 42 1013.9
20260506013628 22 11 0.0 0.0 0.00 0.00 0.00 42 1013.9
20260506013124 22 279 0.0 0.0 0.00 0.00 0.00 43 1013.8
20260506012621 22 14 0.0 0.0 0.00 0.00 0.00 43 1013.7
20260506012118 22 88 0.0 0.0 0.00 0.00 0.00 42 1013.6
20260506011616 22 59 0.0 0.0 0.00 0.00 0.00 42 1013.5
20260506011112 22 40 0.0 0.0 0.00 0.00 0.00 42 1013.8
20260506010611 22 21 0.0 0.0 0.00 0.00 0.00 42 1013.6
20260506010108 22 60 0.0 0.0 0.00 0.00 0.00 41 1013.6
20260506005605 22 1 0.0 0.0 0.00 0.00 0.00 41 1013.6
20260506005101 22 29 0.0 0.0 0.00 0.00 0.00 40 1013.6
20260506004558 23 10 0.0 0.0 0.00 0.00 0.00 41 1013.7
20260506004054 23 70 0.0 1.6 0.00 0.00 0.00 40 1013.8
20260506003551 23 169 0.0 0.0 0.00 0.00 0.00 40 1013.8
20260506003047 23 135 0.0 0.0 0.00 0.00 0.00 40 1013.9
20260506002543 23 111 0.0 1.6 0.00 0.00 0.00 39 1013.8
20260506002039 23 316 0.0 0.0 0.00 0.00 0.00 41 1013.9
20260506001536 23 79 0.0 0.0 0.00 0.00 0.00 41 1013.8
20260506001033 23 27 0.0 0.0 0.00 0.00 0.00 40 1013.9
20260506000530 23 280 0.0 0.0 0.00 0.00 0.00 40 1013.7
20260506000028 23 37 0.0 0.0 0.00 0.00 0.00 42 1013.8
20260505235526 23 41 0.0 0.0 0.00 0.00 0.00 40 1013.7
20260505235022 23 329 0.0 0.0 0.00 0.00 0.00 39 1013.7
20260505234519 24 158 0.0 0.0 0.00 0.00 0.00 40 1013.7
20260505234016 24 176 0.0 0.0 0.00 0.00 0.00 40 1013.7
20260505233513 24 275 0.0 0.0 0.00 0.00 0.00 39 1013.5
20260505233011 24 328 0.0 1.6 0.00 0.00 0.00 39 1013.7
20260505232509 25 0 0.0 0.0 0.00 0.00 0.00 40 1013.5
20260505232006 25 295 0.0 0.0 0.00 0.00 0.00 40 1013.6
20260505231503 24 118 0.0 0.0 0.00 0.00 0.00 39 1013.6
20260505231001 24 311 0.0 0.0 0.00 0.00 0.00 40 1013.5
20260505230458 24 350 0.0 0.0 0.00 0.00 0.00 41 1013.4
20260505225954 25 120 0.0 0.0 0.00 0.00 0.00 40 1013.4
20260505225452 25 138 0.0 0.0 0.00 0.00 0.00 41 1013.8
20260505224948 25 237 0.0 0.0 0.00 0.00 0.00 40 1013.6
20260505224444 25 337 0.0 0.0 0.00 0.00 0.00 39 1013.5
20260505223942 25 294 0.0 0.0 0.00 0.00 0.00 40 1013.4
20260505223439 25 93 0.0 0.0 0.00 0.00 0.00 39 1013.5
20260505222935 25 325 0.0 0.0 0.00 0.00 0.00 40 1013.5
20260505222431 25 104 1.6 1.6 0.00 0.00 0.00 39 1013.5
20260505221927 25 98 0.0 0.0 0.00 0.00 0.00 39 1013.6
20260505221425 25 99 0.0 0.0 0.00 0.00 0.00 39 1013.6
20260505220922 25 278 0.0 0.0 0.00 0.00 0.00 38 1013.5
20260505220419 25 333 0.0 0.0 0.00 0.00 0.00 37 1013.3
20260505215916 25 306 1.6 3.2 0.00 0.00 0.00 37 1013.2
20260505215414 25 123 0.0 1.6 0.00 0.00 0.00 37 1013.3
20260505214912 25 310 0.0 0.0 0.00 0.00 0.00 39 1013.4
20260505214409 25 80 0.0 0.0 0.00 0.00 0.00 39 1013.8
20260505213906 25 308 0.0 1.6 0.00 0.00 0.00 38 1013.6
20260505213404 25 179 0.0 0.0 0.00 0.00 0.00 39 1013.3
20260505212900 25 82 0.0 0.0 0.00 0.00 0.00 38 1013.7
20260505212357 25 105 0.0 1.6 0.00 0.00 0.00 38 1013.6
20260505211853 25 124 0.0 0.0 0.00 0.00 0.00 38 1013.7
20260505211351 25 82 0.0 0.0 0.00 0.00 0.00 38 1013.7
20260505210847 25 22 0.0 1.6 0.00 0.00 0.00 37 1013.9
20260505210344 26 89 0.0 0.0 0.00 0.00 0.00 37 1013.6
20260505205841 26 79 0.0 0.0 0.00 0.00 0.00 37 1013.7
20260505205339 26 41 3.2 3.2 0.00 0.00 0.00 36 1013.9
20260505204836 26 242 0.0 0.0 0.00 0.00 0.00 36 1014.0
20260505204334 25 325 0.0 0.0 0.00 0.00 0.00 38 1014.1
20260505203831 25 125 1.6 1.6 0.00 0.00 0.00 39 1013.9
20260505203327 25 303 3.2 4.8 0.00 0.00 0.00 39 1013.9
20260505202824 25 120 0.0 0.0 0.00 0.00 0.00 38 1014.0
20260505202320 25 333 0.0 1.6 0.00 0.00 0.00 39 1014.0
20260505201817 25 71 0.0 1.6 0.00 0.00 0.00 38 1014.2
20260505201314 25 193 0.0 1.6 0.00 0.00 0.00 39 1014.3
20260505200812 26 139 3.2 3.2 0.00 0.00 0.00 38 1014.4
20260505200309 25 292 0.0 0.0 0.00 0.00 0.00 39 1014.3
20260505195804 25 74 0.0 0.0 0.00 0.00 0.00 37 1014.6
20260505195305 25 117 1.6 1.6 0.00 0.00 0.00 38 1014.7
20260505194759 25 315 0.0 0.0 0.00 0.00 0.00 37 1014.9
20260505194256 25 266 3.2 3.2 0.00 0.00 0.00 38 1014.9
20260505193756 25 335 0.0 0.0 0.00 0.00 0.00 40 1015.0
20260505193254 25 262 3.2 3.2 0.00 0.00 0.00 37 1014.9
20260505192752 25 275 3.2 3.2 0.00 0.00 0.00 37 1015.1
20260505192250 25 266 0.0 0.0 0.00 0.00 0.00 41 1014.9
20260505191748 25 291 1.6 3.2 0.00 0.00 0.00 42 1014.8
20260505191246 25 73 1.6 3.2 0.00 0.00 0.00 40 1014.9
20260505190742 25 256 3.2 4.8 0.00 0.00 0.00 40 1015.1
20260505190237 24 293 3.2 4.8 0.00 0.00 0.00 40 1015.1
20260505185734 24 132 0.0 0.0 0.00 0.00 0.00 42 1015.1
20260505185230 24 110 0.0 0.0 0.00 0.00 0.00 40 1015.3
20260505184726 24 129 1.6 1.6 0.00 0.00 0.00 40 1015.3
20260505184224 24 116 0.0 0.0 0.00 0.00 0.00 40 1015.2
20260505183720 25 101 0.0 0.0 0.00 0.00 0.00 40 1015.2
20260505183218 25 71 1.6 1.6 0.00 0.00 0.00 39 1015.1
20260505182714 25 252 1.6 1.6 0.00 0.00 0.00 37 1015.3
20260505182211 25 315 0.0 0.0 0.00 0.00 0.00 38 1015.6
20260505181707 24 281 0.0 1.6 0.00 0.00 0.00 41 1015.6
20260505181205 24 337 1.6 1.6 0.00 0.00 0.00 39 1015.6
20260505180701 24 248 0.0 0.0 0.00 0.00 0.00 41 1015.9
20260505180158 25 162 3.2 6.4 0.00 0.00 0.00 37 1015.8
20260505175654 25 291 0.0 0.0 0.00 0.00 0.00 42 1016.1
20260505175151 24 11 0.0 0.0 0.00 0.00 0.00 43 1016.0
20260505174647 25 345 0.0 0.0 0.00 0.00 0.00 40 1016.1
20260505174143 25 86 1.6 3.2 0.00 0.00 0.00 40 1015.9
20260505173640 25 135 0.0 0.0 0.00 0.00 0.00 44 1016.4
20260505173137 25 327 0.0 0.0 0.00 0.00 0.00 39 1016.4
20260505172635 25 102 0.0 1.6 0.00 0.00 0.00 40 1016.3
20260505172132 25 118 0.0 1.6 0.00 0.00 0.00 41 1016.4
20260505171626 25 277 0.0 1.6 0.00 0.00 0.00 40 1016.3
20260505171124 25 290 3.2 4.8 0.00 0.00 0.00 38 1016.4
20260505170621 25 162 0.0 0.0 0.00 0.00 0.00 42 1016.4
20260505170117 25 358 1.6 1.6 0.00 0.00 0.00 42 1016.3
20260505165612 25 279 0.0 1.6 0.00 0.00 0.00 42 1016.1
20260505165108 25 253 0.0 1.6 0.00 0.00 0.00 41 1016.5
20260505164604 24 297 1.6 1.6 0.00 0.00 0.00 44 1016.1
20260505164102 24 322 1.6 1.6 0.00 0.00 0.00 42 1016.2
20260505163600 23 131 1.6 1.6 0.00 0.00 0.00 45 1016.1
20260505163057 24 303 8.0 12.9 0.00 0.00 0.00 43 1016.2
20260505162555 25 260 0.0 0.0 0.00 0.00 0.00 44 1016.4
20260505162052 24 267 3.2 4.8 0.00 0.00 0.00 44 1016.1
20260505161549 24 298 1.6 3.2 0.00 0.00 0.00 44 1016.5
20260505161046 24 88 0.0 0.0 0.00 0.00 0.00 45 1016.6
20260505160544 24 99 0.0 0.0 0.00 0.00 0.00 44 1016.8
20260505153020 23 77 4.8 6.4 0.00 0.00 0.00 44 1016.6
20260505152517 23 97 1.6 1.6 0.00 0.00 0.00 44 1016.5
20260505152013 23 332 0.0 0.0 0.00 0.00 0.00 49 1016.4
20260505151508 23 286 0.0 1.6 0.00 0.00 0.00 44 1016.6
20260505151006 23 314 0.0 0.0 0.00 0.00 0.00 48 1016.7
20260505150502 23 37 1.6 1.6 0.00 0.00 0.00 48 1016.7
20260505140433 18 269 0.0 0.0 0.00 0.00 0.00 66 1016.5
20260505124846 13 282 0.0 0.0 0.00 0.00 0.00 83 1016.3
20260505124343 12 282 0.0 0.0 0.00 0.00 0.00 84 1016.1
20260505123839 12 282 0.0 0.0 0.00 0.00 0.00 86 1016.2
20260505123336 12 282 0.0 0.0 0.00 0.00 0.00 86 1016.0
20260505122832 12 282 0.0 0.0 0.00 0.00 0.00 87 1015.9
20260505122329 11 282 0.0 0.0 0.00 0.00 0.00 90 1015.7
20260505121826 11 282 0.0 0.0 0.00 0.00 0.00 91 1015.9
20260505121323 11 282 0.0 0.0 0.00 0.00 0.00 91 1015.9
20260505120819 11 282 0.0 0.0 0.00 0.00 0.00 92 1016.1
20260505120315 10 282 0.0 0.0 0.00 0.00 0.00 92 1016.0
20260505115813 10 282 0.0 0.0 0.00 0.00 0.00 92 1015.9
20260505115311 10 282 0.0 0.0 0.00 0.00 0.00 92 1016.0
20260505114809 10 282 0.0 0.0 0.00 0.00 0.00 92 1016.0
20260505114305 10 282 0.0 0.0 0.00 0.00 0.00 92 1015.7
20260505113801 10 282 0.0 0.0 0.00 0.00 0.00 92 1015.6
20260505113258 9 282 0.0 0.0 0.00 0.00 0.00 92 1015.4
20260505112754 9 282 0.0 0.0 0.00 0.00 0.00 92 1015.6
20260505112252 9 282 0.0 0.0 0.00 0.00 0.00 92 1015.3
20260505111752 9 282 0.0 0.0 0.00 0.00 0.00 92 1015.2
20260505111248 9 282 0.0 0.0 0.00 0.00 0.00 92 1015.3
20260505110744 9 282 0.0 0.0 0.00 0.00 0.00 92 1015.0
20260505110242 9 282 0.0 0.0 0.00 0.00 0.00 91 1015.1
20260505102217 9 282 0.0 0.0 0.00 0.00 0.00 91 1015.0
20260505101716 9 282 0.0 0.0 0.00 0.00 0.00 91 1015.1
20260505101212 9 282 0.0 0.0 0.00 0.00 0.00 91 1015.3
20260505100708 9 282 0.0 0.0 0.00 0.00 0.00 91 1015.2
20260505100205 9 282 0.0 0.0 0.00 0.00 0.00 91 1015.4
20260505095701 9 282 0.0 0.0 0.00 0.00 0.00 91 1015.5
20260505095159 9 282 0.0 0.0 0.00 0.00 0.00 91 1015.3
20260505094654 9 282 0.0 0.0 0.00 0.00 0.00 90 1015.2
20260505094151 9 282 0.0 0.0 0.00 0.00 0.00 90 1015.2
20260505093647 9 282 0.0 0.0 0.00 0.00 0.00 90 1015.2
20260505093145 10 282 0.0 0.0 0.00 0.00 0.00 90 1015.2
20260505092642 10 282 0.0 0.0 0.00 0.00 0.00 90 1015.1
20260505092141 10 282 0.0 0.0 0.00 0.00 0.00 90 1015.1
20260505091637 10 282 0.0 0.0 0.00 0.00 0.00 90 1015.2
20260505091135 10 282 0.0 0.0 0.00 0.00 0.00 90 1015.3
20260505090632 10 282 0.0 0.0 0.00 0.00 0.00 90 1015.3
20260505090131 10 282 0.0 0.0 0.00 0.00 0.00 90 1015.4
20260505085628 10 282 0.0 0.0 0.00 0.00 0.00 90 1015.3
20260505085126 10 282 0.0 0.0 0.00 0.00 0.00 90 1015.4
20260505084623 10 282 0.0 0.0 0.00 0.00 0.00 90 1015.4
20260505084121 10 282 0.0 0.0 0.00 0.00 0.00 89 1015.3
20260505083619 10 282 0.0 0.0 0.00 0.00 0.00 89 1015.4
20260505083115 10 282 0.0 0.0 0.00 0.00 0.00 89 1015.3
20260505082611 10 282 0.0 0.0 0.00 0.00 0.00 88 1015.3
20260505082108 10 282 0.0 0.0 0.00 0.00 0.00 88 1015.4
20260505081604 10 282 0.0 0.0 0.00 0.00 0.00 88 1015.5
20260505081102 10 282 0.0 0.0 0.00 0.00 0.00 88 1015.4
20260505080557 10 282 0.0 0.0 0.00 0.00 0.00 88 1015.4
20260505080054 10 282 0.0 0.0 0.00 0.00 0.00 88 1015.4
20260505075550 10 282 0.0 0.0 0.00 0.00 0.00 88 1015.4
20260505075047 10 282 0.0 0.0 0.00 0.00 0.00 87 1015.2
20260505074544 10 282 0.0 0.0 0.00 0.00 0.00 87 1015.3
20260505074041 10 282 0.0 0.0 0.00 0.00 0.00 87 1015.5
20260505073538 10 282 0.0 0.0 0.00 0.00 0.00 87 1015.1
20260505073037 10 282 0.0 0.0 0.00 0.00 0.00 86 1015.4
20260505072532 11 282 0.0 0.0 0.00 0.00 0.00 86 1015.4
20260505072029 11 282 0.0 0.0 0.00 0.00 0.00 86 1015.4
20260505071524 11 282 0.0 0.0 0.00 0.00 0.00 85 1015.4
20260505071023 11 282 0.0 0.0 0.00 0.00 0.00 85 1015.5
20260505070520 11 282 0.0 0.0 0.00 0.00 0.00 85 1015.2
20260505070016 11 282 0.0 0.0 0.00 0.00 0.00 85 1015.3
20260505065512 11 282 0.0 0.0 0.00 0.00 0.00 85 1015.4
20260505065008 11 282 0.0 0.0 0.00 0.00 0.00 84 1015.7
20260505064505 11 282 0.0 0.0 0.00 0.00 0.00 84 1015.5
20260505064004 11 282 0.0 0.0 0.00 0.00 0.00 84 1015.4
20260505063501 11 282 0.0 0.0 0.00 0.00 0.00 84 1015.3
20260505062956 11 282 0.0 0.0 0.00 0.00 0.00 83 1015.4
20260505062454 11 282 0.0 0.0 0.00 0.00 0.00 82 1015.2
20260505061950 11 282 0.0 0.0 0.00 0.00 0.00 82 1015.5
20260505061448 11 282 0.0 0.0 0.00 0.00 0.00 82 1015.8
20260505060946 11 282 0.0 0.0 0.00 0.00 0.00 81 1015.6
20260505060443 11 282 0.0 0.0 0.00 0.00 0.00 81 1015.4
20260505055939 11 282 0.0 0.0 0.00 0.00 0.00 80 1015.5
20260505055435 12 282 0.0 0.0 0.00 0.00 0.00 80 1015.7
20260505054932 12 282 0.0 0.0 0.00 0.00 0.00 79 1015.5
20260505054429 12 282 0.0 0.0 0.00 0.00 0.00 79 1015.7
20260505053927 12 282 0.0 0.0 0.00 0.00 0.00 78 1015.6
20260505053424 12 282 0.0 0.0 0.00 0.00 0.00 78 1015.7
20260505052921 12 282 0.0 0.0 0.00 0.00 0.00 78 1015.6
20260505052418 12 282 0.0 0.0 0.00 0.00 0.00 77 1015.7
20260505051915 12 282 0.0 0.0 0.00 0.00 0.00 76 1015.7
20260505051412 12 282 0.0 0.0 0.00 0.00 0.00 76 1015.5
20260505050910 12 282 0.0 0.0 0.00 0.00 0.00 76 1015.7
20260505050408 12 282 0.0 0.0 0.00 0.00 0.00 76 1015.5
20260505041336 13 282 0.0 0.0 0.00 0.00 0.00 71 1015.6
20260505040833 13 282 0.0 0.0 0.00 0.00 0.00 71 1015.5
20260505040330 13 282 0.0 0.0 0.00 0.00 0.00 70 1015.4
20260505035827 13 282 0.0 0.0 0.00 0.00 0.00 69 1015.5
20260505035323 13 282 0.0 0.0 0.00 0.00 0.00 69 1015.6
20260505034820 13 282 0.0 0.0 0.00 0.00 0.00 68 1015.4
20260505034317 13 282 0.0 0.0 0.00 0.00 0.00 69 1015.6
20260505033814 14 281 0.0 0.0 0.00 0.00 0.00 69 1015.7
20260505033311 14 285 0.0 0.0 0.00 0.00 0.00 69 1015.7
20260505032809 14 154 0.0 0.0 0.00 0.00 0.00 68 1015.7
20260505032305 15 168 0.0 0.0 0.00 0.00 0.00 66 1015.8
20260505031802 15 168 0.0 0.0 0.00 0.00 0.00 66 1015.6
20260505031258 15 168 0.0 0.0 0.00 0.00 0.00 66 1015.7
20260505030756 15 168 0.0 0.0 0.00 0.00 0.00 64 1015.4
20260505030252 15 168 0.0 0.0 0.00 0.00 0.00 62 1015.5
20260505025747 15 168 0.0 0.0 0.00 0.00 0.00 63 1015.6
20260505025245 15 168 0.0 0.0 0.00 0.00 0.00 62 1015.6
20260505024743 15 168 0.0 0.0 0.00 0.00 0.00 61 1015.7
20260505024241 15 168 0.0 0.0 0.00 0.00 0.00 63 1015.6
20260505023738 15 168 0.0 0.0 0.00 0.00 0.00 62 1015.5
20260505023235 15 168 0.0 0.0 0.00 0.00 0.00 61 1015.5
20260505022732 16 168 0.0 0.0 0.00 0.00 0.00 60 1015.4
20260505022229 16 168 0.0 0.0 0.00 0.00 0.00 61 1015.5
20260505021726 16 168 0.0 0.0 0.00 0.00 0.00 61 1015.6
20260505021223 16 168 0.0 0.0 0.00 0.00 0.00 60 1015.4
20260505020718 16 168 0.0 0.0 0.00 0.00 0.00 61 1015.3
20260505020214 16 168 0.0 0.0 0.00 0.00 0.00 59 1015.2
20260505015712 16 168 0.0 0.0 0.00 0.00 0.00 58 1015.2
20260505015208 17 168 0.0 0.0 0.00 0.00 0.00 58 1015.1
20260505014705 17 168 0.0 0.0 0.00 0.00 0.00 57 1015.0